Regional Weather Roundup
Issued by NWS

Home | Current Version | Previous Version | Text Only | Print | Product List | Glossary On
Versions: 1 2 3 4 5 6 7 8 9 10 11 12 13 14 15 16 17 18 19 20 21 22 23 24 25 26 27 28 29 30 31 32 33 34 35 36 37 38 39 40 41 42 43 44 45 46 47 48 49 50
000
ASUS43 KFSD 210902
RWRSD

WEATHER ROUNDUP FOR SOUTH DAKOTA
NATIONAL WEATHER SERVICE SIOUX FALLS SD
400 AM CDT TUE OCT 21 2014

NOTE: "FAIR" INDICATES FEW OR NO CLOUDS BELOW 12,000 FEET WITH NO
SIGNIFICANT WEATHER AND/OR OBSTRUCTIONS TO VISIBILITY.


SDZ001>005-009-010-012>017-211000-
NORTHWEST AND NORTH CENTRAL SOUTH DAKOTA

CITY           SKY/WX    TMP DP  RH WIND       PRES   REMARKS
FAITH            N/A     49  39  68 S17       29.82F
MOBRIDGE       CLEAR     55  37  50 SE14      29.85F
$$

SDZ012>016-024>037-041>051-057-063-072>074-211000-
SOUTHWEST AND SOUTH CENTRAL SOUTH DAKOTA

CITY           SKY/WX    TMP DP  RH WIND       PRES   REMARKS
RAPID CTY ARPT CLEAR     51  41  68 SE9       29.85F
PIERRE         CLEAR     54  39  57 SE13      29.89F
CUSTER         CLEAR     48  34  58 W3        29.99F
ELLSWORTH AFB  CLEAR     56  41  56 S5        29.84F
PHILIP         CLEAR     50  39  66 E3        29.86F
PINE RIDGE     CLEAR     59  42  53 S18G30    29.92F
SPEARFISH      FAIR      55  37  50 S3        29.87S
WINNER         FAIR      60  40  47 S20       29.93F
$$

SDZ004>011-016>023-039-040-211000-
NORTHEAST SOUTH DAKOTA

CITY           SKY/WX    TMP DP  RH WIND       PRES   REMARKS
ABERDEEN       CLEAR     45  38  76 SE8       29.99F
WATERTOWN      CLEAR     44  37  76 SE5       30.05F
SISSETON         N/A     35  33  92 S6        30.06R
$$

SDZ017-020-022-023-036>040-048>070-211000-
SOUTHEAST SOUTH DAKOTA

CITY           SKY/WX    TMP DP  RH WIND       PRES   REMARKS
SIOUX FALLS    CLEAR     37  33  85 NE6       30.07S
HURON          CLEAR     46  36  68 SE9       30.01F
CHAMBERLAIN    CLEAR     46  37  68 SE9       29.96F
MITCHELL       CLEAR     47  37  68 SE9       30.03F
YANKTON        CLEAR     43  37  81 NE3       30.06S
$$

ABBREVIATIONS USED IN REMARKS
   TC - TEMPERATURE IN CELSIUS
  WCI - WIND CHILL INDEX
   HX - HEAT INDEX
  VSB - VISIBILITY




USA.gov is the U.S. government's official web portal to all federal, state and local government web resources and services.